Sentry

operational
NORAD ID: 59140 Int'l Des: 2024-043 Owner: QUSP Country: US
LEOCIRCULARRETROGRADE

About Sentry

Description loading...

Live Position

Loading 3D Globe...

Upcoming Passes

Altitude History

Altitude vs Time

uPlot chart will show altitude changes over time

Two-Line Element Set

1 59140U 24043AU 26062.41703895 .00320468 39758-4 10980-2 0 9994
2 59140 97.5306 216.0724 0004711 246.6969 113.3808 15.89658077112068
Epoch: Mar 3, 2026 • Age: 24 hours

Current Status

Altitude 317.3 km
Velocity 7.72 km/s
Sub-Earth Point 68.84°N, 36.62°E
Launch Date Mar 4, 2024
Age 1.9 years
Type other

Technical Details

Classification Payload
Mass 10.00 kg
Dry Mass 10.00 kg
Total Mass 10.00 kg
Length 0.30 m
Diameter 0.20 m
Span 0.30 m
Shape Box+2 pan
Manufacturer QUSP
Bus Type Cubesat 6U
Phase Status In Orbit
Owner/State QUSP/US

Large Constellations

Loading constellations...